Location: Chevening
(51.2833°N, 0.1333°E)
Time: 07:13:05
(UTC+00:00)

Daily predictions for brighter satellites

Satellite Brightness Start Highest point End
(mag) Time Altitude Azimuth Time Altitude Azimuth Time Altitude Azimuth
NOSS 2-1 (E) 4.0 21:00:06 10° NW 21:04:28 89° SW 21:10:40 10° SE
SPOT 3 Rocket 3.7 21:01:12 10° SSE 21:06:24 80° WSW 21:11:39 10° NNW
RESURS DK-1 3.4 21:04:46 10° NNW 21:08:39 37° NE 21:12:31 10° ESE
ERS-1 Rocket 3.1 21:04:30 10° SSE 21:09:29 67° ENE 21:14:31 10° N
Lacrosse 4 Rocket 4.1 21:09:18 10° W 21:12:46 26° NW 21:16:13 10° NNE
CZ-2C R/B 4.3 21:11:47 10° NNE 21:16:09 40° E 21:20:25 10° SSE
Cosmos 2056 Rocket 3.6 21:12:02 10° SSW 21:17:26 87° ESE 21:22:55 10° NNE
Cosmos 1025 Rocket 3.3 21:13:39 10° SSW 21:17:54 72° WNW 21:22:13 10° N
Cosmos 1455 Rocket 4.1 21:14:11 10° NNW 21:18:19 43° W 21:22:25 10° SSW
Cosmos 2315 Rocket 4.2 21:14:12 10° SSW 21:20:32 79° W 21:26:53 10° N
Cosmos 1741 Rocket 4.4 21:15:19 10° NNW 21:20:34 56° ENE 21:25:48 10° SE
ARIANE 5 R/B 3.0 21:18:21 10° SE 21:22:42 52° ENE 21:27:02 10° N
Cosmos 676 Rocket 4.4 21:18:25 10° NNW 21:23:41 62° WSW 21:28:53 10° S
Cosmos 1420 Rocket 4.0 21:20:03 10° SSW 21:25:18 83° ESE 21:30:38 10° NNE
Cosmos 2344 4.4 21:17:22 10° NW 21:25:41 66° NE 21:37:02 10° ESE
SL-8 R/B 3.8 21:22:27 10° W 21:27:12 61° S 21:31:58 10° ESE
Cosmos 1455 2.6 21:27:09 10° NNW 21:30:54 60° W 21:34:40 10° S
Cosmos 2074 Rocket 4.1 21:27:26 10° N 21:33:46 78° E 21:40:01 10° SSE
USA 245 4.4 21:29:48 10° S 21:34:13 43° WSW 21:37:49 10° NNW
Meteor 2-5 Rocket 4.4 21:34:38 10° SSW 21:40:03 56° WNW 21:45:33 10° N
USA 32 4.4 21:34:54 10° SSW 21:40:06 69° W 21:45:20 10° N
Cosmos 1607 4.0 21:36:40 10° SW 21:42:56 85° NW 21:49:09 10° NE
SL-16 R/B 4.5 21:39:07 10° NNW 21:42:57 18° NNE 21:46:47 10° ENE
USA 267 3.6 21:38:55 10° ENE 21:45:03 41° SE 21:51:10 10° SSW
Cosmos 1536 Rocket 3.5 21:43:57 10° S 21:48:17 83° E 21:52:39 10° NNE
Cosmos 2228 3.0 21:44:10 10° N 21:48:26 72° E 21:52:05 13° SSE
Tiangong 3.4 21:49:10 10° SSW 21:50:08 11° SSW 21:50:37 11° S
Cosmos 1850 Rocket 4.0 21:45:32 10° NNW 21:50:47 86° WSW 21:55:21 14° SSE
Cosmos 1980 Rocket 3.1 21:45:38 10° NNW 21:51:03 41° NE 21:56:25 10° ESE
SPOT 5 3.4 21:46:58 10° S 21:51:14 46° W 21:55:26 10° NNW
Nadezhda 1 Rocket 4.1 21:47:09 10° S 21:53:03 56° E 21:58:59 10° NNE
Cosmos 1606 Rocket 3.8 21:49:12 10° N 21:53:28 54° ENE 21:56:56 15° SSE
Cosmos 1697 Rocket 2.8 21:48:09 10° NNW 21:53:48 71° ENE 21:58:44 14° SE
Cosmos 1703 3.2 21:51:24 10° S 21:55:13 74° E 21:59:06 10° NNE
Cosmos 2154 Rocket 4.0 21:52:19 10° N 21:58:36 83° E 22:04:14 13° SSE
Cosmos 2084 Rocket 4.1 21:54:57 10° NW 21:58:42 45° NE 22:02:33 10° ESE
Cosmos 2084 3.6 21:56:13 10° SW 22:00:03 65° NW 22:03:56 10° NE
Cosmos 1656 4.1 21:57:52 10° NW 22:03:12 55° WSW 22:07:55 13° S
USA 276 2.2 22:00:31 10° WSW 22:03:24 44° SSE 22:06:18 10° E
Cosmos 1328 4.3 22:04:04 16° SSE 22:06:59 45° E 22:10:50 10° NNE
Cosmos 1331 Rocket 4.3 22:04:06 11° S 22:08:59 50° ESE 22:14:08 10° NNE
X-37B 1.5 22:10:24 10° SW 22:12:43 22° S 22:12:57 22° SSE
Meteor 1-21 Rocket 4.2 22:10:01 11° S 22:15:26 77° E 22:21:07 10° NNE
Lacrosse 5 3.2 22:12:35 10° WNW 22:16:50 27° SW 22:20:08 14° S
Cosmos 1408 3.7 22:15:25 18° SE 22:17:05 26° E 22:20:01 10° NNE
Cosmos 1726 Rocket 3.5 22:13:57 10° N 22:18:17 74° E 22:21:23 18° SSE
SAR-Lupe-4 3.7 22:15:01 10° NNE 22:18:34 57° ESE 22:20:59 19° S
Cosmos 1452 Rocket 3.6 22:13:43 10° SSW 22:18:59 86° WNW 22:24:18 10° NNE
ATLAS 2AS CENTAUR R/B 3.8 22:13:54 10° NW 22:19:59 32° WSW 22:25:25 11° S
FALCON 9 DEB 3.5 22:17:11 10° W 22:20:26 61° N 22:23:40 10° E
USA 234 3.3 22:14:34 10° ESE 22:21:09 82° SSW 22:27:46 10° WNW
Terra 2.9 22:17:02 10° SSW 22:21:27 38° W 22:25:54 10° NNW
Cosmos 2322 Rocket 4.3 22:18:05 10° NNW 22:22:27 22° NE 22:26:47 10° E
Cosmos 1833 Rocket 2.7 22:18:05 10° SSW 22:23:37 64° ESE 22:29:11 10° NE
Cosmos 1867 4.1 22:20:44 10° NW 22:26:09 58° NE 22:31:17 11° ESE
SL-8 Rocket 4.3 22:22:50 10° N 22:29:02 59° ENE 22:33:46 17° SSE
Cosmos 1110 Rocket 4.0 22:25:54 10° SSW 22:31:09 80° ESE 22:36:29 10° NNE
Cosmos 2360 4.4 22:26:12 10° NW 22:31:55 68° WSW 22:36:09 18° SSE
Cosmos 1900 4.5 22:27:43 10° NW 22:32:53 73° SW 22:36:32 19° SSE
SAR-Lupe-1 4.1 22:31:07 10° NNE 22:34:43 84° WNW 22:37:27 16° SSW
Cosmos 1302 Rocket 4.5 22:31:56 18° SSE 22:35:21 42° ESE 22:40:14 10° NE
ALOS 2 3.6 22:32:45 15° SE 22:35:53 37° ENE 22:39:56 10° N
Cosmos 2218 Rocket 4.3 22:34:45 10° N 22:41:07 62° ENE 22:45:53 18° SSE
Cosmos 2366 rocket 4.2 22:38:36 10° N 22:44:54 65° ENE 22:49:34 19° SSE
RESURS DK-1 3.6 22:42:55 10° NW 22:46:33 30° WSW 22:48:58 17° SSW
Cosmos 2082 Rocket 2.7 22:42:49 19° S 22:46:34 43° ESE 22:51:56 10° NE
H-2A R/B 4.5 22:45:23 10° NNE 22:49:11 32° E 22:51:09 21° SE
Cosmos 2341 Rocket 4.0 22:43:03 10° N 22:49:26 88° W 22:54:07 19° S
Cosmos 2058 Rocket 3.0 22:47:52 10° NNW 22:52:18 85° W 22:55:04 23° S
Spot 4 3.8 22:52:43 22° SSE 22:55:50 85° ENE 23:00:40 10° NNW
Cosmos 1892 Rocket 3.6 22:53:33 19° SSW 22:56:45 81° WNW 23:01:10 10° N
Cosmos 1825 2.8 22:58:50 25° SSE 23:00:29 41° E 23:04:02 10° NNE
Cosmos 2360 Rocket 4.1 22:57:27 10° NNW 23:02:10 26° NE 23:06:51 10° E
Cosmos 968 Rocket 3.6 22:58:54 10° NNW 23:04:04 68° WSW 23:07:22 22° S
Cosmos 192 4.3 23:00:40 18° SSW 23:04:21 79° ESE 23:09:17 10° NNE
ERS-2 3.7 23:01:59 10° NE 23:04:45 21° E 23:05:53 18° ESE
Cosmos-2242 4.2 23:01:45 10° N 23:05:37 33° ENE 23:08:16 17° SE
GP-B 3.5 23:03:53 10° N 23:08:15 58° W 23:11:19 19° SSW
SL-8 R/B 4.4 23:04:57 10° W 23:09:18 35° SSW 23:11:22 24° SSE
Cosmos 1959 Rocket 4.4 23:03:18 10° N 23:09:27 89° E 23:13:40 21° S
Cosmos 1626 Rocket 3.8 23:10:22 25° SSE 23:12:38 53° E 23:16:53 10° NNE
Cosmos 1869 3.2 23:11:18 10° N 23:15:11 83° ENE 23:17:08 28° SSE
Cosmos 1606 4.2 23:12:40 10° N 23:16:02 28° ENE 23:18:18 16° ESE
BREEZE-M DEB (TANK) 3.5 23:13:20 10° W 23:16:25 71° S 23:27:41 10° ESE
Meteor 1-27 4.2 23:11:26 10° NNW 23:17:02 85° W 23:20:39 23° S
ASTEX 1 4.2 23:13:21 10° N 23:18:09 47° WNW 23:22:15 14° SW
Cosmos 2181 Rocket 4.0 23:20:12 20° S 23:24:41 87° W 23:30:57 10° N
COSMOS 2406 3.3 23:19:53 11° SSW 23:25:22 80° WNW 23:31:10 10° NNE
ADEOS Rocket 3.5 23:20:28 20° SSE 23:25:44 88° WSW 23:33:30 10° NNW
Cosmos 1633 3.2 23:25:15 28° SE 23:26:29 39° E 23:29:46 10° NNE
Cosmos 2369 4.3 23:21:14 10° NW 23:26:41 46° WSW 23:30:04 22° S
SL-16 R/B 2.7 23:22:41 10° NNW 23:28:19 58° NE 23:33:07 14° SE
USA 267 3.3 23:21:54 10° ENE 23:28:28 85° NNW 23:35:02 10° WSW
Okean 1-7 Rocket 3.5 23:27:28 25° S 23:30:03 89° WSW 23:34:35 10° N
Cosmos 1892 3.4 23:30:47 20° SW 23:33:04 48° WNW 23:36:45 10° N
Cosmos 1980 Rocket 2.8 23:29:44 10° NW 23:35:07 44° WSW 23:38:22 22° S
SJ 16-02 2.3 23:31:41 10° NNW 23:35:56 42° ENE 23:39:13 16° SE
Cosmos 1486 Rocket 4.0 23:31:11 10° NNW 23:36:25 78° WSW 23:39:34 24° SSE
Cosmos 1697 Rocket 4.2 23:32:55 10° NW 23:37:14 23° WSW 23:40:27 14° SW
Cosmos 2084 Rocket 4.3 23:34:30 10° WNW 23:37:59 31° SW 23:39:10 26° SSW
USA 276 1.8 23:35:57 10° W 23:38:56 70° S 23:41:56 10° E
Cosmos 1821 Rocket 4.0 23:35:25 10° N 23:41:46 82° E 23:45:54 22° SSE
Cosmos 2219 Rocket 4.3 23:37:56 10° NNW 23:42:31 24° NE 23:47:06 10° E
Cosmos 1340 Rocket 4.5 23:48:44 17° SE 23:50:28 22° E 23:53:34 10° NE
Cosmos 1992 Rocket 4.0 23:48:18 23° SSW 23:51:37 81° ESE 23:56:54 10° NNE
Cosmos 1408 4.3 23:49:23 13° WSW 23:51:44 24° WNW 23:54:36 10° NNW
